IZ8XTV-13 Weather Reports


time (UTC)temp
C
wind
direction
speed
KPH
gust
KPH
rain 1hr
cm
rain 24hr
cm
rain mn
cm
humidity
%
barometer
mb
20260507050811 15 0 0.0 0.0 0.00 0.00 0.00 99 1014.1
20260507045759 15 0 0.0 0.0 0.00 0.00 0.00 99 1014.2
20260507044747 14 0 0.0 0.0 0.00 0.00 0.00 99 1014.1
20260507043734 14 0 0.0 0.0 0.00 0.00 0.00 99 1013.9
20260507042723 14 0 0.0 0.0 0.00 0.00 0.00 99 1013.9
20260507041711 14 0 0.0 0.0 0.00 0.00 0.00 99 1013.9
20260507040658 15 0 0.0 0.0 0.00 0.00 0.00 99 1013.9
20260507035645 15 0 0.0 0.0 0.00 0.00 0.00 99 1013.8
20260507034633 15 0 0.0 0.0 0.00 0.00 0.00 99 1013.6
20260507033622 15 0 0.0 0.0 0.00 0.00 0.00 99 1013.8
20260507032609 15 0 0.0 0.0 0.00 0.00 0.00 99 1013.8
20260507031557 15 0 0.0 0.0 0.00 0.00 0.00 99 1013.9
20260507030545 15 0 0.0 0.0 0.00 0.00 0.00 99 1014.1
20260507025534 15 0 0.0 0.0 0.00 0.00 0.00 99 1014.1
20260507024521 15 0 0.0 0.0 0.00 0.00 0.00 99 1014.1
20260507023510 15 0 0.0 0.0 0.00 0.00 0.00 99 1014.7
20260507022458 15 0 0.0 0.0 0.00 0.00 0.00 99 1014.5
20260507021444 15 0 0.0 0.0 0.00 0.00 0.00 99 1014.7
20260507020433 15 0 0.0 0.0 0.00 0.00 0.00 99 1014.5
20260507015422 15 0 0.0 0.0 0.00 0.00 0.00 99 1014.3
20260507014410 15 0 0.0 0.0 0.00 0.00 0.00 99 1014.3
20260507013358 15 0 0.0 0.0 0.00 0.00 0.00 99 1014.5
20260507012345 15 0 0.0 0.0 0.00 0.00 0.00 99 1014.4
20260507011334 15 0 0.0 0.0 0.00 0.00 0.00 99 1014.5
20260507010322 15 0 0.0 0.0 0.00 0.00 0.00 99 1014.4
20260507005310 15 0 0.0 0.0 0.00 0.00 0.00 99 1014.5
20260507004258 15 0 0.0 0.0 0.00 0.00 0.00 99 1014.4
20260507003246 15 0 0.0 0.0 0.00 0.00 0.00 99 1014.5
20260507002235 15 0 0.0 0.0 0.00 0.00 0.00 99 1014.8
20260507001223 16 0 0.0 0.0 0.00 0.00 0.00 99 1014.8
20260507000212 16 0 0.0 0.0 0.00 0.00 0.00 99 1014.9
20260506235159 16 0 0.0 0.0 0.00 0.00 0.00 99 1015.0
20260506234146 16 0 0.0 0.0 0.00 0.00 0.00 99 1015.0
20260506233134 16 0 0.0 0.0 0.00 0.00 0.00 99 1015.1
20260506232122 16 0 0.0 0.0 0.00 0.00 0.00 99 1015.2
20260506231109 16 0 0.0 0.0 0.00 0.00 0.00 99 1015.2
20260506230058 16 0 0.0 0.0 0.00 0.00 0.00 99 1015.4
20260506225046 16 0 0.0 0.0 0.00 0.00 0.00 99 1015.6
20260506224035 16 0 0.0 0.0 0.00 0.00 0.00 99 1015.6
20260506223024 16 0 0.0 0.0 0.00 0.00 0.00 99 1015.7
20260506222012 16 0 0.0 0.0 0.00 0.00 0.00 99 1015.8
20260506221000 16 0 0.0 0.0 0.00 0.00 0.00 99 1015.5
20260506215948 17 0 0.0 0.0 0.00 0.00 0.00 99 1015.5
20260506214937 16 0 0.0 0.0 0.00 0.00 0.00 99 1015.6
20260506213925 17 0 0.0 0.0 0.00 0.00 0.00 99 1015.5
20260506212914 17 0 0.0 0.0 0.00 0.00 0.00 98 1015.6
20260506211902 17 0 0.0 0.0 0.00 0.00 0.00 98 1015.6
20260506210849 17 0 0.0 0.0 0.00 0.00 0.00 99 1015.6
20260506205837 17 0 0.0 0.0 0.00 0.00 0.00 99 1015.7
20260506204826 17 0 0.0 0.0 0.00 0.00 0.00 97 1015.9
20260506203813 18 0 0.0 0.0 0.00 0.00 0.00 97 1015.9
20260506202802 18 0 0.0 0.0 0.00 0.00 0.00 95 1016.0
20260506201751 18 0 0.0 0.0 0.00 0.00 0.00 91 1016.1
20260506200738 18 0 0.0 0.0 0.00 0.00 0.00 89 1016.0
20260506195727 18 0 0.0 0.0 0.00 0.00 0.00 88 1016.0
20260506194716 18 0 0.0 0.0 0.00 0.00 0.00 87 1016.2
20260506193705 18 0 0.0 0.0 0.00 0.00 0.00 87 1016.0
20260506192654 19 0 0.0 0.0 0.00 0.00 0.00 87 1015.9
20260506191643 19 0 0.0 0.0 0.00 0.00 0.00 87 1015.7
20260506190632 19 0 0.0 0.0 0.00 0.00 0.00 88 1015.4
20260506185621 19 0 0.0 0.0 0.00 0.00 0.00 88 1015.2
20260506184610 19 0 0.0 0.0 0.00 0.00 0.00 87 1015.0
20260506183559 19 0 0.0 0.0 0.00 0.00 0.00 86 1014.8
20260506182548 20 0 0.0 0.0 0.00 0.00 0.00 84 1014.8
20260506181537 20 0 0.0 0.0 0.00 0.00 0.00 82 1014.8
20260506180526 20 0 0.0 0.0 0.00 0.00 0.00 83 1014.6
20260506175515 20 0 0.0 0.0 0.00 0.00 0.00 83 1014.4
20260506174504 20 0 0.0 0.0 0.00 0.00 0.00 83 1014.5
20260506173453 20 0 0.0 0.0 0.00 0.00 0.00 82 1014.4
20260506172442 21 0 0.0 0.0 0.00 0.00 0.00 82 1014.3
20260506171431 21 0 0.0 0.0 0.00 0.00 0.00 82 1014.3
20260506170420 21 0 0.0 0.0 0.00 0.00 0.00 82 1014.2
20260506165823 21 0 0.0 0.0 0.00 0.00 0.00 82 1014.3
20260506164810 21 0 0.0 0.0 0.00 0.00 0.00 79 1014.3
20260506163759 21 0 0.0 0.0 0.00 0.00 0.00 80 1014.3
20260506162747 22 0 0.0 0.0 0.00 0.00 0.00 79 1014.4
20260506161735 22 0 0.0 0.0 0.00 0.00 0.00 79 1014.3
20260506160723 22 0 0.0 0.0 0.00 0.00 0.00 80 1014.3
20260506155712 22 0 0.0 0.0 0.00 0.00 0.00 79 1014.3
20260506154701 23 0 0.0 0.0 0.00 0.00 0.00 79 1014.3
20260506153650 23 0 0.0 0.0 0.00 0.00 0.00 79 1014.3
20260506152639 23 0 0.0 0.0 0.00 0.00 0.00 78 1014.2
20260506151626 23 0 0.0 0.0 0.00 0.00 0.00 77 1014.1
20260506150615 24 0 0.0 0.0 0.00 0.00 0.00 75 1014.0
20260506145603 24 0 0.0 0.0 0.00 0.00 0.00 74 1013.8
20260506144552 24 0 0.0 0.0 0.00 0.00 0.00 77 1013.9
20260506143541 24 0 0.0 0.0 0.00 0.00 0.00 80 1013.9
20260506142529 25 0 0.0 0.0 0.00 0.00 0.00 78 1014.0
20260506141518 25 0 0.0 0.0 0.00 0.00 0.00 77 1013.9
20260506140506 25 0 0.0 0.0 0.00 0.00 0.00 77 1013.8
20260506135454 25 0 0.0 0.0 0.00 0.00 0.00 76 1014.0
20260506134441 25 0 0.0 0.0 0.00 0.00 0.00 80 1014.2
20260506133429 24 0 0.0 0.0 0.00 0.00 0.00 80 1014.1
20260506132418 25 0 0.0 0.0 0.00 0.00 0.00 76 1014.0
20260506131407 24 0 0.0 0.0 0.00 0.00 0.00 79 1014.2
20260506130356 25 0 0.0 0.0 0.00 0.00 0.00 80 1014.2
20260506125345 25 0 0.0 0.0 0.00 0.00 0.00 80 1014.1
20260506124333 25 0 0.0 0.0 0.00 0.00 0.00 80 1014.0
20260506123322 25 0 0.0 0.0 0.00 0.00 0.00 81 1014.1
20260506122311 25 0 0.0 0.0 0.00 0.00 0.00 82 1014.3
20260506121259 24 0 0.0 0.0 0.00 0.00 0.00 83 1014.2
20260506120248 25 0 0.0 0.0 0.00 0.00 0.00 82 1014.3
20260506115235 26 0 0.0 0.0 0.00 0.00 0.00 81 1014.3
20260506114224 25 0 0.0 0.0 0.00 0.00 0.00 83 1014.2
20260506113212 25 0 0.0 0.0 0.00 0.00 0.00 85 1014.4
20260506112201 24 0 0.0 0.0 0.00 0.00 0.00 87 1014.3
20260506111150 23 0 0.0 0.0 0.00 0.00 0.00 89 1014.2
20260506110138 23 0 0.0 0.0 0.00 0.00 0.00 92 1014.3
20260506105126 23 0 0.0 0.0 0.00 0.00 0.00 90 1014.3
20260506104115 23 0 0.0 0.0 0.00 0.00 0.00 90 1014.3
20260506103104 23 0 0.0 0.0 0.00 0.00 0.00 93 1014.5
20260506102053 22 0 0.0 0.0 0.00 0.00 0.00 93 1014.4
20260506101042 22 0 0.0 0.0 0.00 0.00 0.00 93 1014.7
20260506100031 22 0 0.0 0.0 0.00 0.00 0.00 95 1014.8
20260506095018 21 0 0.0 0.0 0.00 0.00 0.00 97 1014.9
20260506094005 21 0 0.0 0.0 0.00 0.00 0.00 97 1014.9
20260506092954 21 0 0.0 0.0 0.00 0.00 0.00 96 1015.0
20260506091943 21 0 0.0 0.0 0.00 0.00 0.00 95 1014.8
20260506090931 21 0 0.0 0.0 0.00 0.00 0.00 98 1014.9
20260506085919 20 0 0.0 0.0 0.00 0.00 0.00 99 1014.9
20260506084908 20 0 0.0 0.0 0.00 0.00 0.00 99 1015.0
20260506083857 19 0 0.0 0.0 0.00 0.00 0.00 99 1014.9
20260506082844 19 0 0.0 0.0 0.00 0.00 0.00 99 1014.9
20260506081832 19 0 0.0 0.0 0.00 0.00 0.00 99 1015.0
20260506080820 18 0 0.0 0.0 0.00 0.00 0.00 99 1015.0
20260506072433 18 0 0.0 0.0 0.00 0.00 0.00 99 1015.0
20260506071422 18 0 0.0 0.0 0.00 0.00 0.00 99 1015.0
20260506070410 18 0 0.0 0.0 0.00 0.00 0.00 99 1015.0
20260506062321 16 0 0.0 0.0 0.00 0.00 0.00 99 1015.0
20260506061310 16 0 0.0 0.0 0.00 0.00 0.00 99 1014.9
20260506060257 15 0 0.0 0.0 0.00 0.00 0.00 99 1014.8